Observation Tools

Green ash Photo courtesy of Patrick Breen, Oregon State University, oregonstate.edu/dept/ldplants.

Green ash (Fraxinus pennsylvanica)


Plant Family: Olive (Oleaceae)
Project BudBurst Plant Group: Deciduous Trees and Shrubs

Identification Hints: Green ash trees are common throughout the eastern United States. They are very common street trees that can growup to 80 feet tall. The green leaves are "pinnately compound," in this case meaning that the "leaf" consists of 7-9 leaflets (3-4 sets of leaflet pairs along the stem and one leaflet at the end). Green ash flowers and leaves appear at roughly the same time during the spring and the flowers areinconspicuous, so look closely!

Did you Know? Green ash trees are wind pollinated. The male and female flowers occur on separate trees and the male flowers emerge before female flowers. Also, Green ash seeds require "cold stratification" in order to germinate, meaning that they must overwinter under cold temperatures or they won't germinate in the spring. In recent years, the Emerald ash borer, an invasive insect in the United States accidentally introduced in the 1990's, has become a threat to many types of ash trees.


Live Map for Green ash

Other years available for viewing:

Below you can view all observations that have been reported in for Green ash (If the map below is empty then there have not been any observations reported.)

Use the navigation buttons on the left to zoom in/out and pan around. Click on each place marker to get detail information about that observation.

Leaf/Needles/Stalk = Leaf/Needles/Stalk Flower = Flower Pollen = Pollen Fruiting = Fruiting Color = Color

--Back to Top--

close help window button

The table below displays all the data that has been submitted to Project BudBurst. By default, the data is sorted by the date on which the phenophase occurred. Clicking the up and down arrows next to each column name allows you to sort on any value. If there have been more than 10 observations submitted, you can choose how many to display at a time using the "Show __ entries" control. You can also page through the data using the previous and next buttons at the bottom right of the table.

The Search box allows you to search all of the data. Searching by date, species, phenophase, etc. is easy—just start typing and the table will immediately change to contain only observations that contain your search phrase. Do you want to see only 2012 observations? Just type "2012" in the search box. Only want to see maples? Enter "Acer." You can combine searches, too! Searching for "acer 2012" will narrow your results to only the maples that were observed in 2012 (assuming that any observations exist, of course).

Once you have your results in the order desired, you can use any of the buttons above the search box to copy the results to the clipboard; save them as a text, or spreadsheet; or even print them from your browser!

Observational data for Green ash:

help button
Date Contributor Common Name Species Phenophase Latitude Longitude Obs#
Sat Sep 17 00:00:00 GMT 2011 palaback Green ash Fraxinus pennsylvanica Leaves Changing Color (Early) 40.420800000000000 -105.084000000000000 13288
Wed Sep 21 00:00:00 GMT 2011 dnb23 Green ash Fraxinus pennsylvanica Leaves Changing Color (Middle) 42.480400000000000 -76.451200000000000 13327
Sun Sep 25 00:00:00 GMT 2011 kenmaskell Green ash Fraxinus pennsylvanica Leaves Changing Color (Early) 39.916200000000000 -74.784300000000000 13414
Mon Sep 26 00:00:00 GMT 2011 melia718 Green ash Fraxinus pennsylvanica Leaves Changing Color (Late) 39.999800000000000 -105.264000000000000 13437
Wed Sep 28 00:00:00 GMT 2011 cmeier47 Green ash Fraxinus pennsylvanica Leaves Changing Color (Early) 40.016000000000000 -105.246000000000000 13469
Mon Oct 03 00:00:00 GMT 2011 cralston Green ash Fraxinus pennsylvanica 50% Leaf Fall 47.923600000000000 -97.053800000000000 13493
Mon Oct 10 00:00:00 GMT 2011 palaback Green ash Fraxinus pennsylvanica Leaves Changing Color (Middle) 43.386200000000000 -72.082000000000000 13545
Tue Oct 11 00:00:00 GMT 2011 palaback Green ash Fraxinus pennsylvanica Leaves Changing Color (Late) 43.351200000000000 -72.040300000000000 13622
Thu Oct 13 00:00:00 GMT 2011 palaback Green ash Fraxinus pennsylvanica Leaves Changing Color (Middle) 43.363500000000000 -72.094500000000000 13680
Mon Oct 17 00:00:00 GMT 2011 palaback Green ash Fraxinus pennsylvanica Leaves Dropping (Early) 40.307500000000000 -90.000000000000000 13691
Sat Oct 22 00:00:00 GMT 2011 palaback Green ash Fraxinus pennsylvanica Leaves Changing Color (Late) 40.396000000000000 -105.102000000000000 13766
Wed Sep 12 00:00:00 GMT 2012 palaback Green ash Fraxinus pennsylvanica Leaves Changing Color (Early) 40.314900000000000 -105.091000000000000 16603
Sun Apr 07 00:00:00 GMT 2013 cmgilpin Green ash Fraxinus pennsylvanica Bud Burst 39.154700000000000 -86.572300000000000 18618
Wed Apr 10 00:00:00 GMT 2013 Mango55 Green ash Fraxinus pennsylvanica Bud Burst 40.208200000000000 -76.771900000000000 18782
Mon Apr 15 00:00:00 GMT 2013 Mango55 Green ash Fraxinus pennsylvanica First Flower 40.208200000000000 -76.771900000000000 18964
Wed Apr 17 00:00:00 GMT 2013 Mango55 Green ash Fraxinus pennsylvanica Full Flower 40.208200000000000 -76.771900000000000 18998
Wed Mar 20 00:00:00 GMT 2013 NHStudent Green ash Fraxinus pennsylvanica Leaves Unfolding (Early) 40.103900000000000 -105.171000000000000 19053
Thu Mar 21 00:00:00 GMT 2013 NHStudent Green ash Fraxinus pennsylvanica Leaves Unfolding (Early) 40.103900000000000 -105.171000000000000 19062
Thu Mar 21 00:00:00 GMT 2013 NHStudent Green ash Fraxinus pennsylvanica Leaves Unfolding (Early) 40.103900000000000 -105.171000000000000 19061
Sat Apr 20 00:00:00 GMT 2013 Mango55 Green ash Fraxinus pennsylvanica First Leaf 40.208200000000000 -76.771900000000000 19109
Wed May 01 00:00:00 GMT 2013 Mango55 Green ash Fraxinus pennsylvanica All Leaves Unfolded 40.208200000000000 -76.771900000000000 20011
Thu May 09 00:00:00 GMT 2013 MiddleburyBio140 Green ash Fraxinus pennsylvanica Leaves Unfolding (Late) 43.998100000000000 -73.174500000000000 20154
Fri May 10 00:00:00 GMT 2013 allib001 Green ash Fraxinus pennsylvanica First Flower 45.053700000000000 -92.812700000000000 20232
Fri May 17 00:00:00 GMT 2013 allib001 Green ash Fraxinus pennsylvanica All Leaves Unfolded 45.053700000000000 -92.812700000000000 20492
Sat Jun 22 00:00:00 GMT 2013 allib001 Green ash Fraxinus pennsylvanica First Ripe Fruit 45.053700000000000 -92.812700000000000 21422
Fri Sep 13 00:00:00 GMT 2013 Rogers Green ash Fraxinus pennsylvanica First Ripe Fruit 39.160800000000000 -86.505400000000000 22041
Tue Sep 24 00:00:00 GMT 2013 allib001 Green ash Fraxinus pennsylvanica 50% Color 45.053700000000000 -92.812700000000000 22338
Wed Oct 02 00:00:00 GMT 2013 allib001 Green ash Fraxinus pennsylvanica 50% Leaf Fall 45.053700000000000 -92.812700000000000 22339
Tue Oct 22 00:00:00 GMT 2013 robinv1_Washington_College_reporter24 Green ash Fraxinus pennsylvanica 50% Leaf Fall 39.219200000000000 -76.069600000000000 22826
Thu Oct 17 00:00:00 GMT 2013 robinv1_Washington_College_reporter24 Green ash Fraxinus pennsylvanica 50% Color 39.219200000000000 -76.069600000000000 22828
Sat Oct 12 00:00:00 GMT 2013 robinv1_Washington_College_reporter1 Green ash Fraxinus pennsylvanica 50% Leaf Fall 39.219200000000000 -76.069600000000000 22816
Fri Nov 08 00:00:00 GMT 2013 dancyn2005 Green ash Fraxinus pennsylvanica Leaves Changing Color (Late) 36.823100000000000 -84.945100000000000 23025
Mon Oct 07 00:00:00 GMT 2013 kashrews Green ash Fraxinus pennsylvanica 50% Color 39.152400000000000 -86.492000000000000 23192
Fri Oct 18 00:00:00 GMT 2013 kashrews Green ash Fraxinus pennsylvanica 50% Leaf Fall 39.152400000000000 -86.492000000000000 23193
Mon Nov 05 00:00:00 GMT 2012 robinv1_Washington_College_reporter1 Green ash Fraxinus pennsylvanica 50% Color 39.219200000000000 -76.069600000000000 24147
Mon Sep 30 00:00:00 GMT 2013 robinv1_Washington_College_reporter10 Green ash Fraxinus pennsylvanica 50% Color 39.219200000000000 -76.069600000000000 24235
Mon Oct 14 00:00:00 GMT 2013 robinv1_Washington_College_reporter10 Green ash Fraxinus pennsylvanica 50% Leaf Fall 39.219200000000000 -76.069600000000000 24236
Wed Oct 16 00:00:00 GMT 2013 robinv1_Washington_College_reporter20 Green ash Fraxinus pennsylvanica 50% Color 39.219200000000000 -76.069600000000000 24200
Mon Oct 21 00:00:00 GMT 2013 robinv1_Washington_College_reporter20 Green ash Fraxinus pennsylvanica 50% Leaf Fall 39.219200000000000 -76.069600000000000 24201
Mon Mar 31 00:00:00 GMT 2014 Mandy12096 Green ash Fraxinus pennsylvanica Leaves Unfolding (Early) 38.518778000000000 -89.948284000000000 28041
Mon Mar 31 00:00:00 GMT 2014 Mandy12096 Green ash Fraxinus pennsylvanica Leaves Changing Color (None) 38.518778000000000 -89.948284000000000 28042
Mon Mar 31 00:00:00 GMT 2014 Mandy12096 Green ash Fraxinus pennsylvanica Leaves Dropping (None) 38.518778000000000 -89.948284000000000 28043
Mon Mar 31 00:00:00 GMT 2014 Mandy12096 Green ash Fraxinus pennsylvanica Flowers (Early) 38.518778000000000 -89.948284000000000 28044
Mon Mar 31 00:00:00 GMT 2014 Mandy12096 Green ash Fraxinus pennsylvanica Fruit (None) 38.518778000000000 -89.948284000000000 28045
Sun Apr 06 00:00:00 GMT 2014 sm81 Green ash Fraxinus pennsylvanica Bud Burst 39.165325000000000 -86.523856000000000 29185
Mon Mar 24 00:00:00 GMT 2014 knreeve Green ash Fraxinus pennsylvanica Bud Burst 39.166699000000000 -86.514847000000000 29017
Wed Apr 09 00:00:00 GMT 2014 adamsabl Green ash Fraxinus pennsylvanica Leaves Unfolding (None) 39.170467300000000 -86.527952000000030 29071
Wed Apr 09 00:00:00 GMT 2014 adamsabl Green ash Fraxinus pennsylvanica Leaves Changing Color (None) 39.170467300000000 -86.527952000000030 29072
Wed Apr 09 00:00:00 GMT 2014 adamsabl Green ash Fraxinus pennsylvanica Leaves Dropping (None) 39.170467300000000 -86.527952000000030 29073
Wed Apr 09 00:00:00 GMT 2014 adamsabl Green ash Fraxinus pennsylvanica Flowers (None) 39.170467300000000 -86.527952000000030 29074
Wed Apr 09 00:00:00 GMT 2014 adamsabl Green ash Fraxinus pennsylvanica Fruit (None) 39.170467300000000 -86.527952000000030 29075
Sat Apr 12 00:00:00 GMT 2014 SLNC Green ash Fraxinus pennsylvanica Leaves Unfolding (Early) 40.116841000000000 -74.863329000000000 30154
Sat Apr 12 00:00:00 GMT 2014 SLNC Green ash Fraxinus pennsylvanica Leaves Changing Color (None) 40.116841000000000 -74.863329000000000 30155
Sat Apr 12 00:00:00 GMT 2014 SLNC Green ash Fraxinus pennsylvanica Leaves Dropping (None) 40.116841000000000 -74.863329000000000 30156
Sat Apr 12 00:00:00 GMT 2014 SLNC Green ash Fraxinus pennsylvanica Flowers (None) 40.116841000000000 -74.863329000000000 30157
Sat Apr 12 00:00:00 GMT 2014 SLNC Green ash Fraxinus pennsylvanica Fruit (None) 40.116841000000000 -74.863329000000000 30158
Wed Apr 23 00:00:00 GMT 2014 brydel_New_Branches_reporter38 Green ash Fraxinus pennsylvanica Bud Burst 42.895800000000000 -85.635200000000000 30388
Wed Apr 23 00:00:00 GMT 2014 brydel_New_Branches_reporter39 Green ash Fraxinus pennsylvanica Bud Burst 42.895800000000000 -85.635200000000000 30389
Tue Apr 22 00:00:00 GMT 2014 Mango55 Green ash Fraxinus pennsylvanica First Flower 40.208200000000000 -76.771900000000000 30548
Sun Apr 27 00:00:00 GMT 2014 florulalouisvillensis Green ash Fraxinus pennsylvanica Leaves Unfolding (Early) 38.234203000000000 -85.684497000000000 30778
Sun Apr 27 00:00:00 GMT 2014 florulalouisvillensis Green ash Fraxinus pennsylvanica Leaves Changing Color (None) 38.234203000000000 -85.684497000000000 30779
Sun Apr 27 00:00:00 GMT 2014 florulalouisvillensis Green ash Fraxinus pennsylvanica Leaves Dropping (None) 38.234203000000000 -85.684497000000000 30780
Sun Apr 27 00:00:00 GMT 2014 florulalouisvillensis Green ash Fraxinus pennsylvanica Flowers (Early) 38.234203000000000 -85.684497000000000 30781
Sun Apr 27 00:00:00 GMT 2014 florulalouisvillensis Green ash Fraxinus pennsylvanica Fruit (None) 38.234203000000000 -85.684497000000000 30782
Wed Apr 30 00:00:00 GMT 2014 Mango55 Green ash Fraxinus pennsylvanica Full Flower 40.208200000000000 -76.771900000000000 31298
Sun May 04 00:00:00 GMT 2014 Mango55 Green ash Fraxinus pennsylvanica First Leaf 40.208200000000000 -76.771900000000000 31631
Sat May 10 00:00:00 GMT 2014 Rosemary Green ash Fraxinus pennsylvanica Bud Burst 41.801600000000000 -74.720400000000000 31880
Thu May 08 00:00:00 GMT 2014 ecm Green ash Fraxinus pennsylvanica Bud Burst 42.056500000000000 -80.103660000000000 32597
Sat May 17 00:00:00 GMT 2014 ecm Green ash Fraxinus pennsylvanica First Leaf 42.056500000000000 -80.103660000000000 32598
Tue May 20 00:00:00 GMT 2014 ecm Green ash Fraxinus pennsylvanica All Leaves Unfolded 42.056500000000000 -80.103660000000000 32599
Wed May 14 00:00:00 GMT 2014 hyurchenco Green ash Fraxinus pennsylvanica Leaves Unfolding (Early) 44.820320000000000 -73.091800000000000 32978
Wed May 14 00:00:00 GMT 2014 hyurchenco Green ash Fraxinus pennsylvanica Leaves Changing Color (None) 44.820320000000000 -73.091800000000000 32979
Wed May 14 00:00:00 GMT 2014 hyurchenco Green ash Fraxinus pennsylvanica Leaves Dropping (None) 44.820320000000000 -73.091800000000000 32980
Wed May 14 00:00:00 GMT 2014 hyurchenco Green ash Fraxinus pennsylvanica Flowers (None) 44.820320000000000 -73.091800000000000 32981
Wed May 14 00:00:00 GMT 2014 hyurchenco Green ash Fraxinus pennsylvanica Fruit (None) 44.820320000000000 -73.091800000000000 32982
Thu May 29 00:00:00 GMT 2014 Augustine4 Green ash Fraxinus pennsylvanica Leaves Unfolding (Middle) 53.503530000000000 -113.627847000000000 33108
Thu May 29 00:00:00 GMT 2014 Augustine4 Green ash Fraxinus pennsylvanica Leaves Changing Color (None) 53.503530000000000 -113.627847000000000 33109
Thu May 29 00:00:00 GMT 2014 Augustine4 Green ash Fraxinus pennsylvanica Leaves Dropping (None) 53.503530000000000 -113.627847000000000 33110
Thu May 29 00:00:00 GMT 2014 Augustine4 Green ash Fraxinus pennsylvanica Flowers (None) 53.503530000000000 -113.627847000000000 33111
Thu May 29 00:00:00 GMT 2014 Augustine4 Green ash Fraxinus pennsylvanica Fruit (Late) 53.503530000000000 -113.627847000000000 33112
Sat May 10 00:00:00 GMT 2014 Mango55 Green ash Fraxinus pennsylvanica All Leaves Unfolded 40.208200000000000 -76.771900000000000 33170
Thu Jun 26 00:00:00 GMT 2014 snewman14 Green ash Fraxinus pennsylvanica Leaves Unfolding (Late) 40.017191000000000 -105.245841000000000 34341
Thu Jun 26 00:00:00 GMT 2014 snewman14 Green ash Fraxinus pennsylvanica Leaves Changing Color (None) 40.017191000000000 -105.245841000000000 34342
Thu Jun 26 00:00:00 GMT 2014 snewman14 Green ash Fraxinus pennsylvanica Leaves Dropping (None) 40.017191000000000 -105.245841000000000 34343
Thu Jun 26 00:00:00 GMT 2014 snewman14 Green ash Fraxinus pennsylvanica Flowers (Late) 40.017191000000000 -105.245841000000000 34344
Thu Jun 26 00:00:00 GMT 2014 snewman14 Green ash Fraxinus pennsylvanica Fruit (None) 40.017191000000000 -105.245841000000000 34345
Thu Oct 02 00:00:00 GMT 2014 mrsfrey Green ash Fraxinus pennsylvanica 50% Color 41.131790000000000 -73.521880000000000 35932
Sun Oct 05 00:00:00 GMT 2014 jlsnyder335_4H_reporter19 Green ash Fraxinus pennsylvanica Leaves Unfolding (Late) 36.074290000000000 -79.332100000000000 36128
Sun Oct 05 00:00:00 GMT 2014 jlsnyder335_4H_reporter19 Green ash Fraxinus pennsylvanica Leaves Changing Color (Early) 36.074290000000000 -79.332100000000000 36129
Sun Oct 05 00:00:00 GMT 2014 jlsnyder335_4H_reporter19 Green ash Fraxinus pennsylvanica Leaves Dropping (Early) 36.074290000000000 -79.332100000000000 36130
Sun Oct 05 00:00:00 GMT 2014 jlsnyder335_4H_reporter19 Green ash Fraxinus pennsylvanica Flowers (None) 36.074290000000000 -79.332100000000000 36131
Sun Oct 05 00:00:00 GMT 2014 jlsnyder335_4H_reporter19 Green ash Fraxinus pennsylvanica Fruit (None) 36.074290000000000 -79.332100000000000 36132
Thu Oct 09 00:00:00 GMT 2014 mrsfrey Green ash Fraxinus pennsylvanica 50% Leaf Fall 41.131790000000000 -73.521880000000000 37499
Fri Oct 17 00:00:00 GMT 2014 rshuman Green ash Fraxinus pennsylvanica Leaves Unfolding (Late) 44.683290000000000 -73.458370000000000 37742
Fri Oct 17 00:00:00 GMT 2014 rshuman Green ash Fraxinus pennsylvanica Leaves Changing Color (Middle) 44.683290000000000 -73.458370000000000 37743
Fri Oct 17 00:00:00 GMT 2014 rshuman Green ash Fraxinus pennsylvanica Leaves Dropping (Middle) 44.683290000000000 -73.458370000000000 37744
Fri Oct 17 00:00:00 GMT 2014 rshuman Green ash Fraxinus pennsylvanica Flowers (None) 44.683290000000000 -73.458370000000000 37745
Fri Oct 17 00:00:00 GMT 2014 rshuman Green ash Fraxinus pennsylvanica Fruit (None) 44.683290000000000 -73.458370000000000 37746
Thu Oct 09 00:00:00 GMT 2014 kelefthe Green ash Fraxinus pennsylvanica 50% Color 39.148780000000000 -86.576350000000000 40650
Wed Apr 01 00:00:00 GMT 2015 gbuckner17 Green ash Fraxinus pennsylvanica Bud Burst 39.165905000000000 -86.523407000000000 46592
Thu Apr 09 00:00:00 GMT 2015 gbuckner17 Green ash Fraxinus pennsylvanica First Leaf 39.165905000000000 -86.523407000000000 46593
Fri Apr 10 00:00:00 GMT 2015 skinney5 Green ash Fraxinus pennsylvanica Bud Burst 39.165330000000000 -86.526390000000000 46504
Thu Apr 23 00:00:00 GMT 2015 neonHQ Green ash Fraxinus pennsylvanica Leaves Unfolding (Middle) 40.015761000000000 -105.246330000000000 47611
Thu Apr 23 00:00:00 GMT 2015 neonHQ Green ash Fraxinus pennsylvanica Leaves Changing Color (None) 40.015761000000000 -105.246330000000000 47612
Thu Apr 23 00:00:00 GMT 2015 neonHQ Green ash Fraxinus pennsylvanica Leaves Dropping (None) 40.015761000000000 -105.246330000000000 47613
Thu Apr 23 00:00:00 GMT 2015 neonHQ Green ash Fraxinus pennsylvanica Flowers (None) 40.015761000000000 -105.246330000000000 47614
Thu Apr 23 00:00:00 GMT 2015 neonHQ Green ash Fraxinus pennsylvanica Fruit (None) 40.015761000000000 -105.246330000000000 47615
Sun Apr 26 00:00:00 GMT 2015 cheradin Green ash Fraxinus pennsylvanica Leaves Unfolding (Middle) 41.836828000000000 -87.561035000000000 47893
Sun Apr 26 00:00:00 GMT 2015 cheradin Green ash Fraxinus pennsylvanica Leaves Changing Color (None) 41.836828000000000 -87.561035000000000 47894
Sun Apr 26 00:00:00 GMT 2015 cheradin Green ash Fraxinus pennsylvanica Leaves Dropping (None) 41.836828000000000 -87.561035000000000 47895
Sun Apr 26 00:00:00 GMT 2015 cheradin Green ash Fraxinus pennsylvanica Flowers (Early) 41.836828000000000 -87.561035000000000 47896
Sun Apr 26 00:00:00 GMT 2015 cheradin Green ash Fraxinus pennsylvanica Fruit (None) 41.836828000000000 -87.561035000000000 47897
Mon Apr 27 00:00:00 GMT 2015 dhaze Green ash Fraxinus pennsylvanica Leaves Unfolding (None) 42.123980000000000 -88.014600000000000 47946
Mon Apr 27 00:00:00 GMT 2015 dhaze Green ash Fraxinus pennsylvanica Leaves Changing Color (Early) 42.123980000000000 -88.014600000000000 47947
Mon Apr 27 00:00:00 GMT 2015 dhaze Green ash Fraxinus pennsylvanica Leaves Dropping (None) 42.123980000000000 -88.014600000000000 47948
Mon Apr 27 00:00:00 GMT 2015 dhaze Green ash Fraxinus pennsylvanica Flowers (Early) 42.123980000000000 -88.014600000000000 47949
Mon Apr 27 00:00:00 GMT 2015 dhaze Green ash Fraxinus pennsylvanica Fruit (None) 42.123980000000000 -88.014600000000000 47950
Thu Apr 23 00:00:00 GMT 2015 allib001 Green ash Fraxinus pennsylvanica Bud Burst 45.053700000000000 -92.812700000000000 48239
Fri May 15 00:00:00 GMT 2015 allib001 Green ash Fraxinus pennsylvanica All Leaves Unfolded 45.053700000000000 -92.812700000000000 50392
Tue Jun 02 00:00:00 GMT 2015 scientistsin7thgrade Green ash Fraxinus pennsylvanica Leaves Unfolding (Middle) 42.743390000000000 -84.473000000000000 50833
Tue Jun 02 00:00:00 GMT 2015 scientistsin7thgrade Green ash Fraxinus pennsylvanica Leaves Changing Color (Late) 42.743390000000000 -84.473000000000000 50834
Tue Jun 02 00:00:00 GMT 2015 scientistsin7thgrade Green ash Fraxinus pennsylvanica Leaves Dropping (Middle) 42.743390000000000 -84.473000000000000 50835
Tue Jun 02 00:00:00 GMT 2015 scientistsin7thgrade Green ash Fraxinus pennsylvanica Flowers (None) 42.743390000000000 -84.473000000000000 50836
Tue Jun 02 00:00:00 GMT 2015 scientistsin7thgrade Green ash Fraxinus pennsylvanica Fruit (None) 42.743390000000000 -84.473000000000000 50837
Fri Jul 24 00:00:00 GMT 2015 dnuger Green ash Fraxinus pennsylvanica Leaves Unfolding (Late) 41.768770000000000 -87.943650000000000 51938
Fri Jul 24 00:00:00 GMT 2015 dnuger Green ash Fraxinus pennsylvanica Leaves Changing Color (None) 41.768770000000000 -87.943650000000000 51939
Fri Jul 24 00:00:00 GMT 2015 dnuger Green ash Fraxinus pennsylvanica Leaves Dropping (None) 41.768770000000000 -87.943650000000000 51940
Fri Jul 24 00:00:00 GMT 2015 dnuger Green ash Fraxinus pennsylvanica Flowers (Late) 41.768770000000000 -87.943650000000000 51941
Fri Jul 24 00:00:00 GMT 2015 dnuger Green ash Fraxinus pennsylvanica Fruit (None) 41.768770000000000 -87.943650000000000 51942
Sat Aug 08 00:00:00 GMT 2015 grossmanyl Green ash Fraxinus pennsylvanica Leaves Unfolding (Late) 42.537030000000000 -89.005670000000000 52126
Sat Aug 08 00:00:00 GMT 2015 grossmanyl Green ash Fraxinus pennsylvanica Leaves Changing Color (None) 42.537030000000000 -89.005670000000000 52127
Sat Aug 08 00:00:00 GMT 2015 grossmanyl Green ash Fraxinus pennsylvanica Leaves Dropping (None) 42.537030000000000 -89.005670000000000 52128
Sat Aug 08 00:00:00 GMT 2015 grossmanyl Green ash Fraxinus pennsylvanica Flowers (None) 42.537030000000000 -89.005670000000000 52129
Sat Aug 08 00:00:00 GMT 2015 grossmanyl Green ash Fraxinus pennsylvanica Fruit (None) 42.537030000000000 -89.005670000000000 52130
Wed Sep 23 00:00:00 GMT 2015 tcemleech Green ash Fraxinus pennsylvanica 50% Color 39.308690000000000 -76.865240000000000 53342
Thu Oct 01 00:00:00 GMT 2015 robinv1_Washington_College_reporter46 Green ash Fraxinus pennsylvanica Leaves Unfolding (Late) 39.217300000000000 -76.068650000000000 53582
Thu Oct 01 00:00:00 GMT 2015 robinv1_Washington_College_reporter46 Green ash Fraxinus pennsylvanica Leaves Changing Color (Early) 39.217300000000000 -76.068650000000000 53583
Thu Oct 01 00:00:00 GMT 2015 robinv1_Washington_College_reporter46 Green ash Fraxinus pennsylvanica Leaves Dropping (Early) 39.217300000000000 -76.068650000000000 53584
Thu Oct 01 00:00:00 GMT 2015 robinv1_Washington_College_reporter46 Green ash Fraxinus pennsylvanica Flowers (None) 39.217300000000000 -76.068650000000000 53585
Thu Oct 01 00:00:00 GMT 2015 robinv1_Washington_College_reporter46 Green ash Fraxinus pennsylvanica Fruit (None) 39.217300000000000 -76.068650000000000 53586
Mon Oct 05 00:00:00 GMT 2015 robinv1_Washington_College_reporter54 Green ash Fraxinus pennsylvanica Leaves Unfolding (Early) 39.217300000000000 -76.068650000000000 53742
Mon Oct 05 00:00:00 GMT 2015 robinv1_Washington_College_reporter54 Green ash Fraxinus pennsylvanica Leaves Changing Color (Early) 39.217300000000000 -76.068650000000000 53743
Mon Oct 05 00:00:00 GMT 2015 robinv1_Washington_College_reporter54 Green ash Fraxinus pennsylvanica Leaves Dropping (Early) 39.217300000000000 -76.068650000000000 53744
Mon Oct 05 00:00:00 GMT 2015 robinv1_Washington_College_reporter54 Green ash Fraxinus pennsylvanica Flowers (None) 39.217300000000000 -76.068650000000000 53745
Mon Oct 05 00:00:00 GMT 2015 robinv1_Washington_College_reporter54 Green ash Fraxinus pennsylvanica Fruit (None) 39.217300000000000 -76.068650000000000 53746
Wed Oct 07 00:00:00 GMT 2015 allib001 Green ash Fraxinus pennsylvanica 50% Color 45.053700000000000 -92.812700000000000 54198
Sun Oct 11 00:00:00 GMT 2015 robinv1_Washington_College_reporter46 Green ash Fraxinus pennsylvanica Leaves Unfolding (None) 39.217300000000000 -76.068650000000000 54201
Sun Oct 11 00:00:00 GMT 2015 robinv1_Washington_College_reporter46 Green ash Fraxinus pennsylvanica Leaves Changing Color (Early) 39.217300000000000 -76.068650000000000 54202
Sun Oct 11 00:00:00 GMT 2015 robinv1_Washington_College_reporter46 Green ash Fraxinus pennsylvanica Leaves Dropping (Early) 39.217300000000000 -76.068650000000000 54203
Sun Oct 11 00:00:00 GMT 2015 robinv1_Washington_College_reporter46 Green ash Fraxinus pennsylvanica Flowers (None) 39.217300000000000 -76.068650000000000 54204
Sun Oct 11 00:00:00 GMT 2015 robinv1_Washington_College_reporter46 Green ash Fraxinus pennsylvanica Fruit (None) 39.217300000000000 -76.068650000000000 54205
Mon Oct 12 00:00:00 GMT 2015 allib001 Green ash Fraxinus pennsylvanica 50% Leaf Fall 45.053700000000000 -92.812700000000000 54285
Fri Oct 09 00:00:00 GMT 2015 mrsfrey Green ash Fraxinus pennsylvanica 50% Color 41.131790000000000 -73.521880000000000 54284
Wed Oct 14 00:00:00 GMT 2015 TC_HRT145Observer1 Green ash Fraxinus pennsylvanica Leaves Unfolding (Late) 41.927740000000000 -87.799020000000000 54279
Wed Oct 14 00:00:00 GMT 2015 TC_HRT145Observer1 Green ash Fraxinus pennsylvanica Leaves Changing Color (Middle) 41.927740000000000 -87.799020000000000 54280
Wed Oct 14 00:00:00 GMT 2015 TC_HRT145Observer1 Green ash Fraxinus pennsylvanica Leaves Dropping (Middle) 41.927740000000000 -87.799020000000000 54281
Wed Oct 14 00:00:00 GMT 2015 TC_HRT145Observer1 Green ash Fraxinus pennsylvanica Flowers (None) 41.927740000000000 -87.799020000000000 54282
Wed Oct 14 00:00:00 GMT 2015 TC_HRT145Observer1 Green ash Fraxinus pennsylvanica Fruit (None) 41.927740000000000 -87.799020000000000 54283
Fri Oct 16 00:00:00 GMT 2015 TC_HRT145Observer7 Green ash Fraxinus pennsylvanica 50% Color 41.888413000000000 -87.783766000000000 54402
Fri Oct 16 00:00:00 GMT 2015 TC_HRT145Observer7 Green ash Fraxinus pennsylvanica Leaves Unfolding (Late) 41.888285000000000 -87.783594000000000 54418
Fri Oct 16 00:00:00 GMT 2015 TC_HRT145Observer7 Green ash Fraxinus pennsylvanica Leaves Changing Color (Middle) 41.888285000000000 -87.783594000000000 54419
Wed Oct 07 00:00:00 GMT 2015 TC_HRT145Observer7 Green ash Fraxinus pennsylvanica Leaves Unfolding (Late) 41.888285000000000 -87.783594000000000 54408
Wed Oct 07 00:00:00 GMT 2015 TC_HRT145Observer7 Green ash Fraxinus pennsylvanica Leaves Changing Color (Middle) 41.888285000000000 -87.783594000000000 54409
Wed Oct 07 00:00:00 GMT 2015 TC_HRT145Observer7 Green ash Fraxinus pennsylvanica Leaves Dropping (Middle) 41.888285000000000 -87.783594000000000 54410
Wed Oct 07 00:00:00 GMT 2015 TC_HRT145Observer7 Green ash Fraxinus pennsylvanica Flowers (None) 41.888285000000000 -87.783594000000000 54411
Wed Oct 07 00:00:00 GMT 2015 TC_HRT145Observer7 Green ash Fraxinus pennsylvanica Fruit (None) 41.888285000000000 -87.783594000000000 54412
Fri Oct 16 00:00:00 GMT 2015 TC_HRT145Observer7 Green ash Fraxinus pennsylvanica Leaves Dropping (Middle) 41.888285000000000 -87.783594000000000 54420
Fri Oct 16 00:00:00 GMT 2015 TC_HRT145Observer7 Green ash Fraxinus pennsylvanica Flowers (None) 41.888285000000000 -87.783594000000000 54421
Fri Oct 16 00:00:00 GMT 2015 TC_HRT145Observer7 Green ash Fraxinus pennsylvanica Fruit (None) 41.888285000000000 -87.783594000000000 54422
Mon Oct 19 00:00:00 GMT 2015 mrsfrey Green ash Fraxinus pennsylvanica 50% Leaf Fall 41.131790000000000 -73.521880000000000 54516
Fri Oct 16 00:00:00 GMT 2015 TC_HRT145Observer6 Green ash Fraxinus pennsylvanica Leaves Unfolding (Late) 41.881030000000000 -87.856690000000000 54654
Fri Oct 16 00:00:00 GMT 2015 TC_HRT145Observer6 Green ash Fraxinus pennsylvanica Leaves Changing Color (Middle) 41.881030000000000 -87.856690000000000 54655
Fri Oct 16 00:00:00 GMT 2015 TC_HRT145Observer6 Green ash Fraxinus pennsylvanica Leaves Dropping (Middle) 41.881030000000000 -87.856690000000000 54656
Fri Oct 16 00:00:00 GMT 2015 TC_HRT145Observer6 Green ash Fraxinus pennsylvanica Flowers (Late) 41.881030000000000 -87.856690000000000 54657
Fri Oct 16 00:00:00 GMT 2015 TC_HRT145Observer6 Green ash Fraxinus pennsylvanica Fruit (None) 41.881030000000000 -87.856690000000000 54658
Thu Oct 22 00:00:00 GMT 2015 robinv1_Washington_College_reporter46 Green ash Fraxinus pennsylvanica Leaves Unfolding (None) 39.217300000000000 -76.068650000000000 55011
Thu Oct 22 00:00:00 GMT 2015 robinv1_Washington_College_reporter46 Green ash Fraxinus pennsylvanica Leaves Changing Color (Middle) 39.217300000000000 -76.068650000000000 55012
Thu Oct 22 00:00:00 GMT 2015 robinv1_Washington_College_reporter46 Green ash Fraxinus pennsylvanica Leaves Dropping (Middle) 39.217300000000000 -76.068650000000000 55013
Tue Oct 27 00:00:00 GMT 2015 robinv1_Washington_College_reporter46 Green ash Fraxinus pennsylvanica Leaves Unfolding (None) 39.217300000000000 -76.068650000000000 55016
Tue Oct 27 00:00:00 GMT 2015 robinv1_Washington_College_reporter46 Green ash Fraxinus pennsylvanica Leaves Changing Color (Middle) 39.217300000000000 -76.068650000000000 55017
Thu Oct 22 00:00:00 GMT 2015 robinv1_Washington_College_reporter46 Green ash Fraxinus pennsylvanica Flowers (None) 39.217300000000000 -76.068650000000000 55014
Thu Oct 22 00:00:00 GMT 2015 robinv1_Washington_College_reporter46 Green ash Fraxinus pennsylvanica Fruit (None) 39.217300000000000 -76.068650000000000 55015
Tue Oct 27 00:00:00 GMT 2015 robinv1_Washington_College_reporter46 Green ash Fraxinus pennsylvanica Leaves Dropping (Early) 39.217300000000000 -76.068650000000000 55018
Tue Oct 27 00:00:00 GMT 2015 robinv1_Washington_College_reporter46 Green ash Fraxinus pennsylvanica Flowers (None) 39.217300000000000 -76.068650000000000 55019
Tue Oct 27 00:00:00 GMT 2015 robinv1_Washington_College_reporter46 Green ash Fraxinus pennsylvanica Fruit (None) 39.217300000000000 -76.068650000000000 55020
Tue Oct 27 00:00:00 GMT 2015 Kristine Green ash Fraxinus pennsylvanica Leaves Unfolding (None) 40.588970000000000 -105.137590000000000 55042
Tue Oct 27 00:00:00 GMT 2015 Kristine Green ash Fraxinus pennsylvanica Leaves Changing Color (Middle) 40.588970000000000 -105.137590000000000 55043
Tue Oct 27 00:00:00 GMT 2015 Kristine Green ash Fraxinus pennsylvanica Leaves Dropping (Middle) 40.588970000000000 -105.137590000000000 55044
Tue Oct 27 00:00:00 GMT 2015 Kristine Green ash Fraxinus pennsylvanica Flowers (None) 40.588970000000000 -105.137590000000000 55045
Tue Oct 27 00:00:00 GMT 2015 Kristine Green ash Fraxinus pennsylvanica Fruit (None) 40.588970000000000 -105.137590000000000 55046
Thu Nov 05 00:00:00 GMT 2015 robinv1_Washington_College_reporter46 Green ash Fraxinus pennsylvanica Leaves Unfolding (None) 39.217300000000000 -76.068650000000000 56477
Thu Nov 05 00:00:00 GMT 2015 robinv1_Washington_College_reporter46 Green ash Fraxinus pennsylvanica Leaves Changing Color (Middle) 39.217300000000000 -76.068650000000000 56478
Thu Nov 05 00:00:00 GMT 2015 robinv1_Washington_College_reporter46 Green ash Fraxinus pennsylvanica Leaves Dropping (Middle) 39.217300000000000 -76.068650000000000 56479
Thu Nov 05 00:00:00 GMT 2015 robinv1_Washington_College_reporter46 Green ash Fraxinus pennsylvanica Flowers (None) 39.217300000000000 -76.068650000000000 56480
Thu Nov 05 00:00:00 GMT 2015 robinv1_Washington_College_reporter46 Green ash Fraxinus pennsylvanica Fruit (None) 39.217300000000000 -76.068650000000000 56481
Thu Nov 12 00:00:00 GMT 2015 robinv1_Washington_College_reporter46 Green ash Fraxinus pennsylvanica Leaves Unfolding (None) 39.217300000000000 -76.068650000000000 57065
Thu Nov 12 00:00:00 GMT 2015 robinv1_Washington_College_reporter46 Green ash Fraxinus pennsylvanica Leaves Changing Color (Middle) 39.217300000000000 -76.068650000000000 57066
Thu Nov 12 00:00:00 GMT 2015 robinv1_Washington_College_reporter46 Green ash Fraxinus pennsylvanica Leaves Dropping (Middle) 39.217300000000000 -76.068650000000000 57067
Thu Nov 12 00:00:00 GMT 2015 robinv1_Washington_College_reporter46 Green ash Fraxinus pennsylvanica Flowers (None) 39.217300000000000 -76.068650000000000 57068
Thu Nov 12 00:00:00 GMT 2015 robinv1_Washington_College_reporter46 Green ash Fraxinus pennsylvanica Fruit (None) 39.217300000000000 -76.068650000000000 57069
Mon Oct 26 00:00:00 GMT 2015 akjordan Green ash Fraxinus pennsylvanica 50% Color 39.113014000000000 -86.561279000000000 57540
Mon Nov 09 00:00:00 GMT 2015 akjordan Green ash Fraxinus pennsylvanica 50% Leaf Fall 39.113014000000000 -86.561279000000000 57541
Tue Nov 17 00:00:00 GMT 2015 robinv1_Washington_College_reporter46 Green ash Fraxinus pennsylvanica Leaves Unfolding (None) 39.217300000000000 -76.068650000000000 57692
Tue Nov 17 00:00:00 GMT 2015 robinv1_Washington_College_reporter46 Green ash Fraxinus pennsylvanica Leaves Changing Color (Middle) 39.217300000000000 -76.068650000000000 57693
Tue Nov 17 00:00:00 GMT 2015 robinv1_Washington_College_reporter46 Green ash Fraxinus pennsylvanica Leaves Dropping (Middle) 39.217300000000000 -76.068650000000000 57694
Tue Nov 17 00:00:00 GMT 2015 robinv1_Washington_College_reporter46 Green ash Fraxinus pennsylvanica Flowers (None) 39.217300000000000 -76.068650000000000 57695
Tue Nov 17 00:00:00 GMT 2015 robinv1_Washington_College_reporter46 Green ash Fraxinus pennsylvanica Fruit (None) 39.217300000000000 -76.068650000000000 57696
Mon Oct 12 00:00:00 GMT 2015 robinv1_Washington_College_reporter54 Green ash Fraxinus pennsylvanica Leaves Unfolding (None) 39.217300000000000 -76.068650000000000 57760
Mon Oct 12 00:00:00 GMT 2015 robinv1_Washington_College_reporter54 Green ash Fraxinus pennsylvanica Leaves Changing Color (Early) 39.217300000000000 -76.068650000000000 57761
Mon Oct 12 00:00:00 GMT 2015 robinv1_Washington_College_reporter54 Green ash Fraxinus pennsylvanica Leaves Dropping (Early) 39.217300000000000 -76.068650000000000 57762
Mon Oct 12 00:00:00 GMT 2015 robinv1_Washington_College_reporter54 Green ash Fraxinus pennsylvanica Flowers (None) 39.217300000000000 -76.068650000000000 57763
Mon Oct 12 00:00:00 GMT 2015 robinv1_Washington_College_reporter54 Green ash Fraxinus pennsylvanica Fruit (None) 39.217300000000000 -76.068650000000000 57764
Mon Sep 28 00:00:00 GMT 2015 robinv1_Washington_College_reporter54 Green ash Fraxinus pennsylvanica Leaves Unfolding (None) 39.217300000000000 -76.068650000000000 57745
Mon Sep 28 00:00:00 GMT 2015 robinv1_Washington_College_reporter54 Green ash Fraxinus pennsylvanica Leaves Changing Color (Early) 39.217300000000000 -76.068650000000000 57746
Mon Sep 28 00:00:00 GMT 2015 robinv1_Washington_College_reporter54 Green ash Fraxinus pennsylvanica Leaves Dropping (Early) 39.217300000000000 -76.068650000000000 57747
Mon Sep 28 00:00:00 GMT 2015 robinv1_Washington_College_reporter54 Green ash Fraxinus pennsylvanica Flowers (None) 39.217300000000000 -76.068650000000000 57748
Mon Sep 28 00:00:00 GMT 2015 robinv1_Washington_College_reporter54 Green ash Fraxinus pennsylvanica Fruit (None) 39.217300000000000 -76.068650000000000 57749
Thu Dec 03 00:00:00 GMT 2015 robinv1_Washington_College_reporter46 Green ash Fraxinus pennsylvanica Leaves Unfolding (None) 39.217300000000000 -76.068650000000000 57895
Thu Dec 03 00:00:00 GMT 2015 robinv1_Washington_College_reporter46 Green ash Fraxinus pennsylvanica Leaves Changing Color (Late) 39.217300000000000 -76.068650000000000 57896
Thu Dec 03 00:00:00 GMT 2015 robinv1_Washington_College_reporter46 Green ash Fraxinus pennsylvanica Leaves Dropping (Late) 39.217300000000000 -76.068650000000000 57897
Thu Dec 03 00:00:00 GMT 2015 robinv1_Washington_College_reporter46 Green ash Fraxinus pennsylvanica Flowers (None) 39.217300000000000 -76.068650000000000 57898
Thu Dec 03 00:00:00 GMT 2015 robinv1_Washington_College_reporter46 Green ash Fraxinus pennsylvanica Fruit (None) 39.217300000000000 -76.068650000000000 57899
Mon Oct 19 00:00:00 GMT 2015 robinv1_Washington_College_reporter54 Green ash Fraxinus pennsylvanica Leaves Unfolding (None) 39.217300000000000 -76.068650000000000 58882
Mon Oct 19 00:00:00 GMT 2015 robinv1_Washington_College_reporter54 Green ash Fraxinus pennsylvanica Leaves Changing Color (Early) 39.217300000000000 -76.068650000000000 58883
Mon Oct 19 00:00:00 GMT 2015 robinv1_Washington_College_reporter54 Green ash Fraxinus pennsylvanica Leaves Dropping (Early) 39.217300000000000 -76.068650000000000 58884
Mon Oct 19 00:00:00 GMT 2015 robinv1_Washington_College_reporter54 Green ash Fraxinus pennsylvanica Flowers (None) 39.217300000000000 -76.068650000000000 58885
Mon Oct 19 00:00:00 GMT 2015 robinv1_Washington_College_reporter54 Green ash Fraxinus pennsylvanica Fruit (None) 39.217300000000000 -76.068650000000000 58886
Mon Oct 26 00:00:00 GMT 2015 robinv1_Washington_College_reporter54 Green ash Fraxinus pennsylvanica Leaves Unfolding (None) 39.217300000000000 -76.068650000000000 58887
Mon Oct 26 00:00:00 GMT 2015 robinv1_Washington_College_reporter54 Green ash Fraxinus pennsylvanica Leaves Changing Color (Early) 39.217300000000000 -76.068650000000000 58888
Mon Oct 26 00:00:00 GMT 2015 robinv1_Washington_College_reporter54 Green ash Fraxinus pennsylvanica Leaves Dropping (Early) 39.217300000000000 -76.068650000000000 58889
Mon Oct 26 00:00:00 GMT 2015 robinv1_Washington_College_reporter54 Green ash Fraxinus pennsylvanica Flowers (None) 39.217300000000000 -76.068650000000000 58890
Mon Oct 26 00:00:00 GMT 2015 robinv1_Washington_College_reporter54 Green ash Fraxinus pennsylvanica Fruit (None) 39.217300000000000 -76.068650000000000 58891
Mon Nov 02 00:00:00 GMT 2015 robinv1_Washington_College_reporter54 Green ash Fraxinus pennsylvanica Leaves Unfolding (None) 39.217300000000000 -76.068650000000000 58893
Mon Nov 02 00:00:00 GMT 2015 robinv1_Washington_College_reporter54 Green ash Fraxinus pennsylvanica Leaves Changing Color (Early) 39.217300000000000 -76.068650000000000 58894
Mon Nov 02 00:00:00 GMT 2015 robinv1_Washington_College_reporter54 Green ash Fraxinus pennsylvanica Leaves Dropping (Early) 39.217300000000000 -76.068650000000000 58895
Mon Nov 02 00:00:00 GMT 2015 robinv1_Washington_College_reporter54 Green ash Fraxinus pennsylvanica Flowers (None) 39.217300000000000 -76.068650000000000 58896
Mon Nov 02 00:00:00 GMT 2015 robinv1_Washington_College_reporter54 Green ash Fraxinus pennsylvanica Fruit (None) 39.217300000000000 -76.068650000000000 58897
Mon Nov 09 00:00:00 GMT 2015 robinv1_Washington_College_reporter54 Green ash Fraxinus pennsylvanica Leaves Unfolding (None) 39.217300000000000 -76.068650000000000 58898
Mon Nov 09 00:00:00 GMT 2015 robinv1_Washington_College_reporter54 Green ash Fraxinus pennsylvanica Leaves Changing Color (Early) 39.217300000000000 -76.068650000000000 58899
Mon Nov 09 00:00:00 GMT 2015 robinv1_Washington_College_reporter54 Green ash Fraxinus pennsylvanica Leaves Dropping (Early) 39.217300000000000 -76.068650000000000 58900
Mon Nov 09 00:00:00 GMT 2015 robinv1_Washington_College_reporter54 Green ash Fraxinus pennsylvanica Flowers (None) 39.217300000000000 -76.068650000000000 58901
Mon Nov 09 00:00:00 GMT 2015 robinv1_Washington_College_reporter54 Green ash Fraxinus pennsylvanica Fruit (None) 39.217300000000000 -76.068650000000000 58902
Mon Nov 16 00:00:00 GMT 2015 robinv1_Washington_College_reporter54 Green ash Fraxinus pennsylvanica Leaves Unfolding (None) 39.217300000000000 -76.068650000000000 58903
Mon Nov 16 00:00:00 GMT 2015 robinv1_Washington_College_reporter54 Green ash Fraxinus pennsylvanica Leaves Changing Color (Early) 39.217300000000000 -76.068650000000000 58904
Mon Nov 16 00:00:00 GMT 2015 robinv1_Washington_College_reporter54 Green ash Fraxinus pennsylvanica Leaves Dropping (Early) 39.217300000000000 -76.068650000000000 58905
Mon Nov 16 00:00:00 GMT 2015 robinv1_Washington_College_reporter54 Green ash Fraxinus pennsylvanica Flowers (None) 39.217300000000000 -76.068650000000000 58906
Mon Nov 16 00:00:00 GMT 2015 robinv1_Washington_College_reporter54 Green ash Fraxinus pennsylvanica Fruit (None) 39.217300000000000 -76.068650000000000 58907
Mon Nov 30 00:00:00 GMT 2015 robinv1_Washington_College_reporter54 Green ash Fraxinus pennsylvanica Leaves Unfolding (None) 39.217300000000000 -76.068650000000000 58908
Mon Nov 30 00:00:00 GMT 2015 robinv1_Washington_College_reporter54 Green ash Fraxinus pennsylvanica Leaves Changing Color (Early) 39.217300000000000 -76.068650000000000 58909
Mon Nov 30 00:00:00 GMT 2015 robinv1_Washington_College_reporter54 Green ash Fraxinus pennsylvanica Leaves Dropping (Early) 39.217300000000000 -76.068650000000000 58910
Mon Nov 30 00:00:00 GMT 2015 robinv1_Washington_College_reporter54 Green ash Fraxinus pennsylvanica Flowers (None) 39.217300000000000 -76.068650000000000 58911
Mon Nov 30 00:00:00 GMT 2015 robinv1_Washington_College_reporter54 Green ash Fraxinus pennsylvanica Fruit (None) 39.217300000000000 -76.068650000000000 58912
Tue Sep 08 00:00:00 GMT 2015 robinv1_Washington_College_reporter41 Green ash Fraxinus pennsylvanica Leaves Unfolding (None) 39.220448000000000 -76.070652000000000 58973
Tue Sep 08 00:00:00 GMT 2015 robinv1_Washington_College_reporter41 Green ash Fraxinus pennsylvanica Leaves Changing Color (None) 39.220448000000000 -76.070652000000000 58974
Tue Sep 08 00:00:00 GMT 2015 robinv1_Washington_College_reporter41 Green ash Fraxinus pennsylvanica Leaves Dropping (None) 39.220448000000000 -76.070652000000000 58975
Tue Sep 08 00:00:00 GMT 2015 robinv1_Washington_College_reporter41 Green ash Fraxinus pennsylvanica Flowers (None) 39.220448000000000 -76.070652000000000 58976
Tue Sep 08 00:00:00 GMT 2015 robinv1_Washington_College_reporter41 Green ash Fraxinus pennsylvanica Fruit (None) 39.220448000000000 -76.070652000000000 58977
Mon Sep 28 00:00:00 GMT 2015 robinv1_Washington_College_reporter41 Green ash Fraxinus pennsylvanica Leaves Unfolding (None) 39.220448000000000 -76.070652000000000 58983
Mon Sep 28 00:00:00 GMT 2015 robinv1_Washington_College_reporter41 Green ash Fraxinus pennsylvanica Leaves Changing Color (None) 39.220448000000000 -76.070652000000000 58984
Mon Sep 28 00:00:00 GMT 2015 robinv1_Washington_College_reporter41 Green ash Fraxinus pennsylvanica Leaves Dropping (None) 39.220448000000000 -76.070652000000000 58985
Mon Sep 28 00:00:00 GMT 2015 robinv1_Washington_College_reporter41 Green ash Fraxinus pennsylvanica Flowers (None) 39.220448000000000 -76.070652000000000 58986
Mon Sep 28 00:00:00 GMT 2015 robinv1_Washington_College_reporter41 Green ash Fraxinus pennsylvanica Fruit (None) 39.220448000000000 -76.070652000000000 58987
Mon Oct 05 00:00:00 GMT 2015 robinv1_Washington_College_reporter41 Green ash Fraxinus pennsylvanica Leaves Unfolding (None) 39.220448000000000 -76.070652000000000 59003
Mon Oct 05 00:00:00 GMT 2015 robinv1_Washington_College_reporter41 Green ash Fraxinus pennsylvanica Leaves Changing Color (Early) 39.220448000000000 -76.070652000000000 59004
Mon Oct 05 00:00:00 GMT 2015 robinv1_Washington_College_reporter41 Green ash Fraxinus pennsylvanica Leaves Dropping (Early) 39.220448000000000 -76.070652000000000 59005
Mon Oct 05 00:00:00 GMT 2015 robinv1_Washington_College_reporter41 Green ash Fraxinus pennsylvanica Flowers (None) 39.220448000000000 -76.070652000000000 59006
Mon Oct 05 00:00:00 GMT 2015 robinv1_Washington_College_reporter41 Green ash Fraxinus pennsylvanica Fruit (None) 39.220448000000000 -76.070652000000000 59007
Mon Oct 12 00:00:00 GMT 2015 robinv1_Washington_College_reporter41 Green ash Fraxinus pennsylvanica Leaves Unfolding (None) 39.220448000000000 -76.070652000000000 59023
Mon Oct 12 00:00:00 GMT 2015 robinv1_Washington_College_reporter41 Green ash Fraxinus pennsylvanica Leaves Changing Color (Middle) 39.220448000000000 -76.070652000000000 59024
Mon Oct 12 00:00:00 GMT 2015 robinv1_Washington_College_reporter41 Green ash Fraxinus pennsylvanica Leaves Dropping (Early) 39.220448000000000 -76.070652000000000 59025
Mon Oct 12 00:00:00 GMT 2015 robinv1_Washington_College_reporter41 Green ash Fraxinus pennsylvanica Flowers (None) 39.220448000000000 -76.070652000000000 59026
Mon Oct 12 00:00:00 GMT 2015 robinv1_Washington_College_reporter41 Green ash Fraxinus pennsylvanica Fruit (None) 39.220448000000000 -76.070652000000000 59027
Mon Oct 19 00:00:00 GMT 2015 robinv1_Washington_College_reporter41 Green ash Fraxinus pennsylvanica Leaves Unfolding (None) 39.220448000000000 -76.070652000000000 59038
Mon Oct 19 00:00:00 GMT 2015 robinv1_Washington_College_reporter41 Green ash Fraxinus pennsylvanica Leaves Changing Color (Middle) 39.220448000000000 -76.070652000000000 59039
Mon Oct 19 00:00:00 GMT 2015 robinv1_Washington_College_reporter41 Green ash Fraxinus pennsylvanica Leaves Dropping (Early) 39.220448000000000 -76.070652000000000 59040
Mon Oct 19 00:00:00 GMT 2015 robinv1_Washington_College_reporter41 Green ash Fraxinus pennsylvanica Flowers (None) 39.220448000000000 -76.070652000000000 59041
Mon Oct 19 00:00:00 GMT 2015 robinv1_Washington_College_reporter41 Green ash Fraxinus pennsylvanica Fruit (None) 39.220448000000000 -76.070652000000000 59042
Mon Oct 26 00:00:00 GMT 2015 robinv1_Washington_College_reporter41 Green ash Fraxinus pennsylvanica Leaves Unfolding (None) 39.220448000000000 -76.070652000000000 59043
Mon Oct 26 00:00:00 GMT 2015 robinv1_Washington_College_reporter41 Green ash Fraxinus pennsylvanica Leaves Changing Color (Middle) 39.220448000000000 -76.070652000000000 59044
Mon Oct 26 00:00:00 GMT 2015 robinv1_Washington_College_reporter41 Green ash Fraxinus pennsylvanica Leaves Dropping (Middle) 39.220448000000000 -76.070652000000000 59045
Mon Oct 26 00:00:00 GMT 2015 robinv1_Washington_College_reporter41 Green ash Fraxinus pennsylvanica Flowers (None) 39.220448000000000 -76.070652000000000 59046
Mon Oct 26 00:00:00 GMT 2015 robinv1_Washington_College_reporter41 Green ash Fraxinus pennsylvanica Fruit (None) 39.220448000000000 -76.070652000000000 59047
Fri Oct 02 00:00:00 GMT 2015 robinv1_Washington_College_reporter41 Green ash Fraxinus pennsylvanica Leaves Unfolding (None) 39.220448000000000 -76.070652000000000 59053
Fri Oct 02 00:00:00 GMT 2015 robinv1_Washington_College_reporter41 Green ash Fraxinus pennsylvanica Leaves Changing Color (Late) 39.220448000000000 -76.070652000000000 59054
Fri Oct 02 00:00:00 GMT 2015 robinv1_Washington_College_reporter41 Green ash Fraxinus pennsylvanica Leaves Dropping (Middle) 39.220448000000000 -76.070652000000000 59055
Fri Oct 02 00:00:00 GMT 2015 robinv1_Washington_College_reporter41 Green ash Fraxinus pennsylvanica Flowers (None) 39.220448000000000 -76.070652000000000 59056
Fri Oct 02 00:00:00 GMT 2015 robinv1_Washington_College_reporter41 Green ash Fraxinus pennsylvanica Fruit (None) 39.220448000000000 -76.070652000000000 59057
Fri Oct 09 00:00:00 GMT 2015 robinv1_Washington_College_reporter41 Green ash Fraxinus pennsylvanica Leaves Unfolding (None) 39.220448000000000 -76.070652000000000 59063
Fri Oct 09 00:00:00 GMT 2015 robinv1_Washington_College_reporter41 Green ash Fraxinus pennsylvanica Leaves Changing Color (Late) 39.220448000000000 -76.070652000000000 59064
Fri Oct 09 00:00:00 GMT 2015 robinv1_Washington_College_reporter41 Green ash Fraxinus pennsylvanica Leaves Dropping (Late) 39.220448000000000 -76.070652000000000 59065
Fri Oct 09 00:00:00 GMT 2015 robinv1_Washington_College_reporter41 Green ash Fraxinus pennsylvanica Flowers (None) 39.220448000000000 -76.070652000000000 59066
Fri Oct 09 00:00:00 GMT 2015 robinv1_Washington_College_reporter41 Green ash Fraxinus pennsylvanica Fruit (None) 39.220448000000000 -76.070652000000000 59067
Fri Oct 16 00:00:00 GMT 2015 robinv1_Washington_College_reporter41 Green ash Fraxinus pennsylvanica Leaves Unfolding (None) 39.220448000000000 -76.070652000000000 59073
Fri Oct 16 00:00:00 GMT 2015 robinv1_Washington_College_reporter41 Green ash Fraxinus pennsylvanica Leaves Changing Color (Late) 39.220448000000000 -76.070652000000000 59074
Fri Oct 16 00:00:00 GMT 2015 robinv1_Washington_College_reporter41 Green ash Fraxinus pennsylvanica Leaves Dropping (Late) 39.220448000000000 -76.070652000000000 59075
Fri Oct 16 00:00:00 GMT 2015 robinv1_Washington_College_reporter41 Green ash Fraxinus pennsylvanica Flowers (None) 39.220448000000000 -76.070652000000000 59076
Fri Oct 16 00:00:00 GMT 2015 robinv1_Washington_College_reporter41 Green ash Fraxinus pennsylvanica Fruit (None) 39.220448000000000 -76.070652000000000 59077
Fri Oct 23 00:00:00 GMT 2015 robinv1_Washington_College_reporter41 Green ash Fraxinus pennsylvanica Leaves Unfolding (None) 39.220448000000000 -76.070652000000000 59083
Fri Oct 23 00:00:00 GMT 2015 robinv1_Washington_College_reporter41 Green ash Fraxinus pennsylvanica Leaves Changing Color (Late) 39.220448000000000 -76.070652000000000 59084
Fri Oct 23 00:00:00 GMT 2015 robinv1_Washington_College_reporter41 Green ash Fraxinus pennsylvanica Leaves Dropping (Late) 39.220448000000000 -76.070652000000000 59085
Fri Oct 23 00:00:00 GMT 2015 robinv1_Washington_College_reporter41 Green ash Fraxinus pennsylvanica Flowers (None) 39.220448000000000 -76.070652000000000 59086
Fri Oct 23 00:00:00 GMT 2015 robinv1_Washington_College_reporter41 Green ash Fraxinus pennsylvanica Fruit (None) 39.220448000000000 -76.070652000000000 59087
Mon Dec 07 00:00:00 GMT 2015 robinv1_Washington_College_reporter41 Green ash Fraxinus pennsylvanica Leaves Unfolding (None) 39.220448000000000 -76.070652000000000 59088
Mon Dec 07 00:00:00 GMT 2015 robinv1_Washington_College_reporter41 Green ash Fraxinus pennsylvanica Leaves Changing Color (Late) 39.220448000000000 -76.070652000000000 59089
Mon Dec 07 00:00:00 GMT 2015 robinv1_Washington_College_reporter41 Green ash Fraxinus pennsylvanica Leaves Dropping (Late) 39.220448000000000 -76.070652000000000 59090
Mon Dec 07 00:00:00 GMT 2015 robinv1_Washington_College_reporter41 Green ash Fraxinus pennsylvanica Flowers (None) 39.220448000000000 -76.070652000000000 59091
Mon Dec 07 00:00:00 GMT 2015 robinv1_Washington_College_reporter41 Green ash Fraxinus pennsylvanica Fruit (None) 39.220448000000000 -76.070652000000000 59092
Thu Dec 10 00:00:00 GMT 2015 dennisw Green ash Fraxinus pennsylvanica Leaves Unfolding (None) 40.017044000000000 -105.245962000000000 60820
Thu Dec 10 00:00:00 GMT 2015 dennisw Green ash Fraxinus pennsylvanica Leaves Changing Color (None) 40.017044000000000 -105.245962000000000 60821
Thu Dec 10 00:00:00 GMT 2015 dennisw Green ash Fraxinus pennsylvanica Leaves Dropping (Late) 40.017044000000000 -105.245962000000000 60822
Thu Dec 10 00:00:00 GMT 2015 dennisw Green ash Fraxinus pennsylvanica Flowers (None) 40.017044000000000 -105.245962000000000 60823
Thu Dec 10 00:00:00 GMT 2015 dennisw Green ash Fraxinus pennsylvanica Fruit (None) 40.017044000000000 -105.245962000000000 60824
Tue Jan 24 00:00:00 GMT 2017 espear Green ash Fraxinus pennsylvanica Leaves Unfolding (None) 39.786090000000000 -105.035470000000000 74504
Tue Jan 24 00:00:00 GMT 2017 espear Green ash Fraxinus pennsylvanica Leaves Changing Color (None) 39.786090000000000 -105.035470000000000 74505
Tue Jan 24 00:00:00 GMT 2017 espear Green ash Fraxinus pennsylvanica Leaves Dropping (Late) 39.786090000000000 -105.035470000000000 74506
Tue Jan 24 00:00:00 GMT 2017 espear Green ash Fraxinus pennsylvanica Flowers (None) 39.786090000000000 -105.035470000000000 74507
Tue Jan 24 00:00:00 GMT 2017 espear Green ash Fraxinus pennsylvanica Fruit (Late) 39.786090000000000 -105.035470000000000 74508
Sun Mar 19 00:00:00 GMT 2017 espear Green ash Fraxinus pennsylvanica Leaves Unfolding (None) 39.786090000000000 -105.035470000000000 75683
Sun Mar 19 00:00:00 GMT 2017 espear Green ash Fraxinus pennsylvanica Leaves Changing Color (None) 39.786090000000000 -105.035470000000000 75684
Sun Mar 19 00:00:00 GMT 2017 espear Green ash Fraxinus pennsylvanica Leaves Dropping (None) 39.786090000000000 -105.035470000000000 75685
Sun Mar 19 00:00:00 GMT 2017 espear Green ash Fraxinus pennsylvanica Flowers (None) 39.786090000000000 -105.035470000000000 75686
Sun Mar 19 00:00:00 GMT 2017 espear Green ash Fraxinus pennsylvanica Fruit (None) 39.786090000000000 -105.035470000000000 75687
Mon Mar 20 00:00:00 GMT 2017 allib001 Green ash Fraxinus pennsylvanica Bud Burst 45.053700000000000 -92.812700000000000 76372

*All downloadable materials require the free Adobe Reader.